Waukegan, IL

1:18 AM CDT on June 23, 2017 (GMT -0500)
Waukegan Regional

Weather History for KUGN - December, 2012

Change the Weather History Date:

Thursday, December 6, 2012

  Actual Average Record
Temperature  
Mean Temperature 39 °F -  
Max Temperature 45 °F 37 °F 50 °F (2001)
Min Temperature 33 °F 23 °F -2 °F (2007)
Degree Days  
Heating Degree Days 26 35  
Month to date heating degree days 123 206  
Since 1 July heating degree days 1562 1591  
Cooling Degree Days 0 0  
Month to date cooling degree days 0 0  
Year to date cooling degree days 983 564  
Moisture  
Dew Point 32 °F    
Average Humidity 74    
Maximum Humidity 83    
Minimum Humidity 65    
Precipitation  
Precipitation T in 0.09 in 0.24 in (2004)
Month to date precipitation 0.33 0.51  
Year to date precipitation 23.74 34.10  
Sea Level Pressure  
Sea Level Pressure 30.04 in    
Wind  
Wind Speed 9 mph (South)    
Max Wind Speed 17 mph    
Max Gust Speed 22 mph    
Visibility 10 miles    
Events Rain    
T = Trace of Precipitation, MM = Missing Value Source: NWS Daily Summary

Daily Weather History Graph

Daily Weather History Graph

Search for Another Location

Airport or City:

Trip Planner

Search our weather history database for the weather conditions in past years. The results will help you decide how hot, cold, wet, or windy it might be!

Date:

Astronomy

Dec. 06, 2012 Rise Set
Actual Time 7:06 AM CST 4:18 PM CST
Civil Twilight 6:35 AM CST 4:50 PM CST
Nautical Twilight 5:59 AM CST 5:25 PM CST
Astronomical Twilight 5:25 AM CST 5:59 PM CST
Moon No Moon Rise 11:52 AM CST (12/6)
Length of Visible Light 10h 15m
Length of Day
9h 11m
Waning Gibbous, 49% of the Moon is Illuminated
Dec 6
Waning Gibbous
Dec 13
New
Dec 19
First Quarter
Dec 28
Full
Jan 4
Last Quarter

Hourly Weather History & Observations

Time (CST) Temp. Windchill Dew Point Humidity Pressure Visibility Wind Dir Wind Speed Gust Speed Precip Events Conditions
12:52 AM 35.1 °F 28.6 °F 27.0 °F 72% 30.23 in 10.0 mi South 8.1 mph - N/A   Clear
1:52 AM 35.1 °F 28.6 °F 27.0 °F 72% 30.24 in 10.0 mi South 8.1 mph - N/A   Partly Cloudy
2:52 AM 35.1 °F 28.6 °F 27.0 °F 72% 30.22 in 10.0 mi South 8.1 mph - N/A   Clear
3:52 AM 34.0 °F 29.8 °F 27.0 °F 75% 30.18 in 10.0 mi SSE 4.6 mph - N/A   Partly Cloudy
4:52 AM 34.0 °F 27.2 °F 27.0 °F 75% 30.17 in 10.0 mi SSE 8.1 mph - N/A   Clear
5:52 AM 34.0 °F 26.0 °F 27.0 °F 75% 30.15 in 10.0 mi SSE 10.4 mph - N/A   Clear
6:52 AM 34.0 °F 27.2 °F 27.0 °F 75% 30.15 in 10.0 mi South 8.1 mph - N/A   Clear
7:52 AM 34.0 °F 26.6 °F 27.0 °F 75% 30.13 in 10.0 mi South 9.2 mph - N/A   Partly Cloudy
8:52 AM 36.0 °F 28.5 °F 28.0 °F 73% 30.12 in 10.0 mi South 10.4 mph - N/A   Mostly Cloudy
9:52 AM 37.0 °F 29.8 °F 28.9 °F 73% 30.11 in 9.0 mi South 10.4 mph - N/A   Mostly Cloudy
10:52 AM 39.0 °F 31.8 °F 30.9 °F 73% 30.06 in 8.0 mi South 11.5 mph - N/A   Clear
11:52 AM 41.0 °F 34.3 °F 32.0 °F 70% 30.03 in 9.0 mi SSW 11.5 mph - N/A   Mostly Cloudy
12:52 PM 43.0 °F 37.2 °F 32.0 °F 65% 29.98 in 9.0 mi South 10.4 mph - N/A   Mostly Cloudy
1:52 PM 44.1 °F 39.0 °F 33.1 °F 65% 29.95 in 10.0 mi SSW 9.2 mph - N/A   Overcast
2:52 PM 43.0 °F 38.8 °F 35.1 °F 74% 29.95 in 9.0 mi South 6.9 mph - 0.00 in Rain Light Rain
3:52 PM 44.1 °F 37.4 °F 34.0 °F 68% 29.93 in 9.0 mi South 13.8 mph - 0.00 in   Overcast
4:52 PM 44.1 °F 38.1 °F 34.0 °F 68% 29.93 in 10.0 mi South 11.5 mph - N/A   Overcast
5:52 PM 44.1 °F 37.4 °F 35.1 °F 71% 29.90 in 10.0 mi South 13.8 mph - 0.00 in Rain Light Rain
6:52 PM 43.0 °F 39.5 °F 36.0 °F 76% 29.94 in 10.0 mi SW 5.8 mph - 0.00 in   Overcast
7:52 PM 42.1 °F 38.4 °F 36.0 °F 79% 29.94 in 10.0 mi SW 5.8 mph - N/A   Overcast
8:52 PM 42.1 °F 38.4 °F 37.0 °F 82% 29.94 in 9.0 mi SSW 5.8 mph - N/A   Mostly Cloudy
9:52 PM 44.1 °F 39.0 °F 37.9 °F 79% 29.92 in 9.0 mi SSW 9.2 mph - N/A   Overcast
10:52 PM 44.1 °F 41.5 °F 39.0 °F 82% 29.93 in 9.0 mi SW 4.6 mph - N/A   Overcast
11:52 PM 44.1 °F 42.5 °F 37.9 °F 79% 29.92 in 9.0 mi SW 3.5 mph - N/A   Overcast